Terminal Aerodrome Forecast
Issued by NWS Melbourne, FL

Home | Current Version | Previous Version | Text Only | Print | Product List | Glossary On
Versions: 1 2 3 4 5 6 7 8 9 10 11 12 13 14 15
000
FTUS42 KMLB 202330
TAFDAB
TAF
KDAB 202330Z 2100/2124 VRB04KT P6SM FEW250
     FM211500 04007KT P6SM SCT030 SCT250
     FM211800 05011KT P6SM SCT040 SCT250=

USA.gov is the U.S. government's official web portal to all federal, state and local government web resources and services.